Location: Unspecified
(50.7693°N, 0.0000°E)
Time: 02:31:49
(UTC+00:00)

Vanguard 2 - Pass Details

Date: 17 June 2019
Orbit: 554 x 2937 km, 32.9° (Epoch: 14 October)

Event Time Altitude Azimuth Distance (km) Brightness Sun altitude
Rises 10:35:44 0° 229° (SW) 4,004 11.2 58.0°
Reaches altitude 10° 10:38:35 10° 217° (SW) 3,344 11.0 58.3°
Maximum altitude 10:45:41 28° 163° (SSE) 2,909 11.6 59.0°
Drops below altitude 10° 10:55:56 10° 113° (ESE) 4,939 12.2 59.9°
Sets 11:01:18 0° 104° (ESE) 6,298 12.5 60.3°
